Regional Weather Roundup
Issued by NWS

Home | Current Version | Previous Version | Text Only | Print | Product List | Glossary Off
Versions: 1 2 3 4 5 6 7 8 9 10 11 12 13 14 15 16 17 18 19 20 21 22 23 24 25 26 27 28 29 30 31 32 33 34 35 36 37 38 39 40 41 42 43 44 45 46 47 48 49 50

000
ASUS43 KOAX 281302
RWRNE

WEATHER ROUNDUP FOR NEBRASKA
NATIONAL WEATHER SERVICE OMAHA NE
800 AM CDT FRI APR 28 2017

NOTES: SATELLITE DATA IS BEING USED TO AUGMENT CLOUD COVER ABOVE
       12000 FEET.
       "FAIR" INDICATES FEW OR NO CLOUDS BELOW 12,000 FEET WITH NO
       SIGNIFICANT WEATHER AND/OR OBSTRUCTIONS TO VISIBILITY.

  * THESE STATIONS DO NOT REPORT WEATHER SUCH AS RAIN...SNOW OR FOG.

NEZ001>004-019>022-054>056-281400-
NEBRASKA PANHANDLE

CITY           SKY/WX    TMP DP  RH WIND       PRES   REMARKS
SCOTTSBLUFF    SNOW      33  31  92 E9        29.68R VSB 1/2 WCI  25
ALLIANCE       LGT SNOW  33  32  96 E9        29.68R VSB 1   WCI  25
CHADRON        LGT SNOW  33  31  92 NE10      29.75R VSB 1   WCI  25
KIMBALL        CLOUDY    38  33  82 W9        29.64R WCI  32
SIDNEY         LGT RAIN  33  32  96 E9        29.66R FOG     WCI  25
$$

NEZ057>060-069>072-079>082-281400-
SOUTHWEST NEBRASKA

CITY           SKY/WX    TMP DP  RH WIND       PRES   REMARKS
NORTH PLATTE   LGT RAIN  39  36  89 E13       29.69R WCI  31
IMPERIAL       LGT RAIN  35  34  96 NE13      29.66R WCI  26
LEXINGTON      LGT RAIN  42  40  93 NE18      29.67R
MCCOOK         LGT RAIN  42  42 100 NE20G25   29.60R FOG
OGALLALA       LGT SNOW  34  33  97 NE5       29.69R WCI  30
$$

NEZ005>010-023>029-035>040-094-281400-
NORTH CENTRAL NEBRASKA

CITY           SKY/WX    TMP DP  RH WIND       PRES   REMARKS
VALENTINE      CLOUDY    39  28  64 E14       29.81R WCI  31
AINSWORTH      LGT SNOW  35  34  97 E13       29.81R WCI  26
BROKEN BOW     LGT RAIN  37  35  92 NE17      29.72R WCI  27
O`NEILL        CLOUDY    36  31  80 E9        29.83R WCI  29
ORD            LGT SNOW  35  32  88 NE15      29.76R FOG     WCI  25
THEDFORD       SNOW      34  33  98 E12       29.76R VSB 1/2 WCI  25
$$

NEZ041-046>049-061>064-073>077-083>087-281400-
SOUTH CENTRAL NEBRASKA

CITY           SKY/WX    TMP DP  RH WIND       PRES   REMARKS
GRAND ISLAND   LGT RAIN  40  40 100 NE20G28   29.71R FOG     WCI  30
AURORA         LGT RAIN  40  39  97 NE22G28   29.70R WCI  30
HASTINGS       RAIN      44  42  93 E21       29.66R FOG
HEBRON         DRIZZLE   46  46  97 E12G17    29.66R
HOLDREGE       LGT RAIN  44  42  95 NE18G24   29.63R
KEARNEY *      CLOUDY    43  37  81 NE23      29.67R
YORK           PTSUNNY   39  39 100 NE20G25   29.71R FOG     WCI  30
$$

NEZ011>018-030>034-042>045-281400-
NORTHEAST NEBRASKA

CITY           SKY/WX    TMP DP  RH WIND       PRES   REMARKS
NORFOLK        LGT SNOW  33  30  88 E10       29.83R FOG     WCI  25
ALBION         LGT SNOW  35  32  90 NE14      29.79S WCI  25
BLAIR          LGT RAIN  37  34  90 NE14G22   29.80R WCI  28
FREMONT        LGT RAIN  36  34  90 NE13G18   29.82R WCI  28
TEKAMAH        LGT RAIN  37  32  82 NE10      29.84S WCI  30
WAYNE          CLOUDY    35  31  86 E9        29.85R WCI  28
$$

NEZ050>053-065>068-078-088>093-281400-
SOUTHEAST NEBRASKA

CITY           SKY/WX    TMP DP  RH WIND       PRES   REMARKS
LINCOLN        LGT RAIN  41  39  93 NE17G25   29.75R FOG
OMAHA EPPLEY   RAIN      38  32  79 NE13G20   29.81R WCI  30
BEATRICE       DRIZZLE   45  43  95 E17       29.68R
FALLS CITY     RAIN      44  43  96 NE14G26   29.67S FOG
NEBRASKA CITY  LGT RAIN  40  40  97 NE16G26   29.72S WCI  32
PLATTSMOUTH    LGT RAIN  40  36  86 NE14      29.75F WCI  32
$$

NEZ044-045-051>053-067-281400-
OMAHA AREA

CITY           SKY/WX    TMP DP  RH WIND       PRES   REMARKS
OMAHA EPPLEY   RAIN      38  32  79 NE13G20   29.81R WCI  30
BLAIR          LGT RAIN  37  34  90 NE14G22   29.80R WCI  28
FREMONT        LGT RAIN  36  34  90 NE13G18   29.82R WCI  28
MILLARD        LGT RAIN  40  37  90 NE9G21    29.80R WCI  34
OFFUTT AFB     RAIN      38  36  90 NE15      29.77S WCI  30
PLATTSMOUTH    LGT RAIN  40  36  86 NE14      29.75F WCI  32
WAHOO          LGT RAIN  38  35  90 NE18G24   29.78R WCI  28
$$




USA.gov is the U.S. government's official web portal to all federal, state and local government web resources and services.